FW4751 Weather Reports


Display with metric or nautical units.
time (UTC)temp
F
wind
direction
speed
MPH
gust
MPH
rain 1hr
in
rain 24hr
in
rain mn
in
humidity
%
barometer
mb
20260831061005 59 0.0 1.0 0.00 0.00 0.00 83 1013.2
20260831060510 59 0.0 1.0 0.00 0.00 0.00 83 1013.2
20260831060003 59 0.0 1.0 0.00 0.00 0.00 82 1013.3
20260831055525 59 0.0 1.0 0.00 0.00 0.00 82 1013.3
20260831055005 59 0.0 1.0 0.00 0.00 0.00 81 1013.3
20260831054510 59 0.0 2.0 0.00 0.00 0.00 81 1013.3
20260831054005 59 0.0 1.0 0.00 0.00 0.00 81 1013.3
20260831053505 59 0.0 1.0 0.00 0.00 0.00 80 1013.3
20260831053006 59 0.0 2.0 0.00 0.00 0.00 79 1013.3
20260831052505 60 0.0 1.0 0.00 0.00 0.00 79 1013.2
20260831052005 60 0.0 1.0 0.00 0.00 0.00 79 1013.3
20260831051509 60 0.0 1.0 0.00 0.00 0.00 79 1013.2
20260831051009 60 0.0 1.0 0.00 0.00 0.00 79 1013.2
20260831050505 60 0.0 2.0 0.00 0.00 0.00 79 1013.3
20260831050025 60 0.0 1.0 0.00 0.00 0.00 79 1013.2
20260831045505 60 0.0 1.0 0.00 0.00 0.00 78 1013.2
20260831045010 61 0.0 2.0 0.00 0.00 0.00 78 1013.2
20260831044509 61 23 1.0 2.0 0.00 0.00 0.00 78 1013.1
20260831044005 61 0.0 2.0 0.00 0.00 0.00 77 1013.1
20260831043525 61 23 1.0 2.0 0.00 0.00 0.00 76 1013.1
20260831043005 61 0 1.0 2.0 0.00 0.00 0.00 76 1013.1
20260831042505 61 45 1.0 2.0 0.00 0.00 0.00 76 1013.1
20260831042005 62 45 1.0 2.0 0.00 0.00 0.00 76 1013.1
20260831041504 62 23 1.0 2.0 0.00 0.00 0.00 76 1013.0
20260831041010 62 23 1.0 2.0 0.00 0.00 0.00 76 1012.9
20260831040505 62 23 1.0 3.0 0.00 0.00 0.00 76 1012.9
20260831040004 62 0 1.0 4.0 0.00 0.00 0.00 75 1012.7
20260831035524 62 23 1.0 4.0 0.00 0.00 0.00 75 1012.7
20260831035004 62 45 1.0 3.0 0.00 0.00 0.00 74 1012.7
20260831034504 63 23 1.0 3.0 0.00 0.00 0.00 73 1012.5
20260831034004 63 23 1.0 3.0 0.00 0.00 0.00 73 1012.5
20260831033505 63 23 1.0 3.0 0.00 0.00 0.00 73 1012.5
20260831033025 63 23 1.0 3.0 0.00 0.00 0.00 74 1012.4
20260831032505 63 23 1.0 2.0 0.00 0.00 0.00 74 1012.3
20260831032005 64 0.0 2.0 0.00 0.00 0.00 75 1012.3
20260831031505 64 0.0 2.0 0.00 0.00 0.00 75 1012.2
20260831031005 64 0.0 2.0 0.00 0.00 0.00 74 1012.3
20260831030504 64 0.0 1.0 0.00 0.00 0.00 74 1012.1
20260831030005 64 0.0 2.0 0.00 0.00 0.00 74 1012.1
20260831025545 65 0.0 2.0 0.00 0.00 0.00 73 1012.2
20260831025005 65 23 1.0 2.0 0.00 0.00 0.00 73 1012.1
20260831024504 65 45 1.0 2.0 0.00 0.00 0.00 73 1012.1
20260831024007 65 0.0 1.0 0.00 0.00 0.00 72 1012.0
20260831023529 65 23 1.0 2.0 0.00 0.00 0.00 72 1012.1
20260831023004 66 23 1.0 3.0 0.00 0.00 0.00 72 1012.1
20260831022504 66 23 1.0 3.0 0.00 0.00 0.00 71 1012.0
20260831022004 66 23 1.0 4.0 0.00 0.00 0.00 70 1011.9
20260831021505 66 45 2.0 4.0 0.00 0.00 0.00 70 1011.9
20260831021004 67 45 2.0 4.0 0.00 0.00 0.00 70 1011.9
20260831020504 67 23 2.0 5.0 0.00 0.00 0.00 69 1011.9
20260831020005 67 0 2.0 6.0 0.00 0.00 0.00 70 1012.0
20260831015524 68 23 2.0 5.0 0.00 0.00 0.00 72 1011.8
20260831015004 68 23 1.0 4.0 0.00 0.00 0.00 74 1011.9
20260831014505 68 23 2.0 4.0 0.00 0.00 0.00 75 1011.8
20260831014004 68 23 2.0 6.0 0.00 0.00 0.00 75 1011.9
20260831013504 68 23 2.0 6.0 0.00 0.00 0.00 74 1011.8
20260831013009 69 23 2.0 7.0 0.00 0.00 0.00 73 1011.9
20260831012504 69 23 2.0 6.0 0.00 0.00 0.00 73 1011.9
20260831012004 69 45 1.0 5.0 0.00 0.00 0.00 73 1011.8
20260831011504 69 23 1.0 3.0 0.00 0.00 0.00 73 1011.8
20260831011025 69 23 3.0 7.0 0.00 0.00 0.00 72 1011.9
20260831010504 69 45 3.0 7.0 0.00 0.00 0.00 72 1012.0
20260831010004 70 23 3.0 6.0 0.00 0.00 0.00 71 1012.0
20260831005524 70 45 3.0 6.0 0.00 0.00 0.00 69 1011.9
20260831005004 70 23 2.0 6.0 0.00 0.00 0.00 69 1012.0
20260831004504 70 23 2.0 7.0 0.00 0.00 0.00 68 1012.0
20260831004024 70 23 2.0 6.0 0.00 0.00 0.00 66 1012.0
20260831003504 71 23 2.0 6.0 0.00 0.00 0.00 66 1012.0
20260831003004 71 23 2.0 5.0 0.00 0.00 0.00 65 1012.1
20260831002504 71 23 2.0 6.0 0.00 0.00 0.00 65 1012.1
20260831002004 71 45 3.0 7.0 0.00 0.00 0.00 65 1012.0
20260831001504 71 23 2.0 6.0 0.00 0.00 0.00 64 1012.2
20260831001004 72 23 2.0 6.0 0.00 0.00 0.00 63 1012.1
20260831000504 72 45 2.0 5.0 0.00 0.00 0.00 63 1012.1
20260831000004 73 23 2.0 9.0 0.00 0.00 0.00 62 1012.1
20260830235504 73 23 2.0 5.0 0.00 0.00 0.00 63 1012.1
20260830235024 72 23 2.0 5.0 0.00 0.00 0.00 63 1012.2
20260830234504 72 23 2.0 6.0 0.00 0.00 0.00 64 1012.2
20260830234004 72 45 2.0 6.0 0.00 0.00 0.00 63 1012.3
20260830233504 73 23 2.0 6.0 0.00 0.00 0.00 63 1012.1
20260830233004 73 45 1.0 6.0 0.00 0.00 0.00 64 1012.2
20260830232504 72 338 2.0 7.0 0.00 0.00 0.00 64 1012.1
20260830232024 72 45 2.0 6.0 0.00 0.00 0.00 65 1012.3
20260830231504 72 45 2.0 5.0 0.00 0.00 0.00 66 1012.3
20260830231004 72 23 2.0 4.0 0.00 0.00 0.00 66 1012.3
20260830230504 72 23 3.0 6.0 0.00 0.00 0.00 66 1012.3
20260830230009 71 45 2.0 4.0 0.00 0.00 0.00 66 1012.5
20260830225504 71 45 2.0 6.0 0.00 0.00 0.00 66 1012.5
20260830225004 71 23 2.0 7.0 0.00 0.00 0.00 66 1012.6
20260830224504 71 45 3.0 7.0 0.00 0.00 0.00 65 1012.5
20260830224004 72 23 2.0 5.0 0.00 0.00 0.00 66 1012.7
20260830223504 71 45 2.0 5.0 0.00 0.00 0.00 66 1012.7
20260830223004 71 45 2.0 7.0 0.00 0.00 0.00 66 1012.8
20260830222504 71 45 2.0 8.0 0.00 0.00 0.00 66 1012.8
20260830222004 71 45 2.0 6.0 0.00 0.00 0.00 66 1012.8
20260830221504 71 45 2.0 6.0 0.00 0.00 0.00 67 1012.8
20260830221004 71 23 2.0 6.0 0.00 0.00 0.00 67 1012.9
20260830220504 71 23 2.0 7.0 0.00 0.00 0.00 67 1012.9
20260830220004 71 45 2.0 7.0 0.00 0.00 0.00 67 1012.9
20260830215504 71 23 3.0 6.0 0.00 0.00 0.00 66 1013.1
20260830215024 71 23 2.0 8.0 0.00 0.00 0.00 67 1013.2
20260830214524 71 45 2.0 6.0 0.00 0.00 0.00 66 1013.2
20260830214004 71 45 2.0 6.0 0.00 0.00 0.00 66 1013.4
20260830213503 71 23 2.0 7.0 0.00 0.00 0.00 66 1013.5
20260830213004 71 45 2.0 5.0 0.00 0.00 0.00 66 1013.6
20260830212504 71 45 2.0 5.0 0.00 0.00 0.00 66 1013.6
20260830212003 71 45 3.0 7.0 0.00 0.00 0.00 66 1013.7
20260830211503 71 45 2.0 6.0 0.00 0.00 0.00 67 1013.8
20260830211004 71 45 2.0 6.0 0.00 0.00 0.00 67 1013.7
20260830210503 71 45 2.0 6.0 0.00 0.00 0.00 67 1013.8
20260830210004 71 45 2.0 5.0 0.00 0.00 0.00 66 1013.9
20260830205503 71 45 2.0 4.0 0.00 0.00 0.00 66 1013.9
20260830205004 71 45 2.0 6.0 0.00 0.00 0.00 66 1013.8
20260830204504 71 338 2.0 5.0 0.00 0.00 0.00 66 1013.7
20260830204003 71 45 2.0 5.0 0.00 0.00 0.00 67 1013.9
20260830203504 70 45 2.0 6.0 0.00 0.00 0.00 67 1013.9
20260830203003 70 23 2.0 6.0 0.00 0.00 0.00 68 1014.0
20260830202504 70 45 2.0 6.0 0.00 0.00 0.00 67 1014.0
20260830202024 70 45 2.0 5.0 0.00 0.00 0.00 68 1014.0
20260830201523 70 23 2.0 6.0 0.00 0.00 0.00 67 1014.1
20260830201003 70 45 2.0 6.0 0.00 0.00 0.00 67 1014.0
20260830200503 70 45 2.0 6.0 0.00 0.00 0.00 68 1014.1
20260830200003 69 45 3.0 7.0 0.00 0.00 0.00 68 1014.0
20260830195504 70 45 2.0 8.0 0.00 0.00 0.00 68 1014.2
20260830195003 70 45 3.0 6.0 0.00 0.00 0.00 67 1014.3
20260830194504 70 23 2.0 6.0 0.00 0.00 0.00 67 1014.2
20260830194003 70 45 2.0 6.0 0.00 0.00 0.00 66 1014.3
20260830193503 70 45 2.0 7.0 0.00 0.00 0.00 65 1014.3
20260830193003 70 45 2.0 7.0 0.00 0.00 0.00 66 1014.3
20260830192504 70 23 2.0 8.0 0.00 0.00 0.00 65 1014.4
20260830192003 70 45 2.0 8.0 0.00 0.00 0.00 64 1014.4
20260830191504 71 45 2.0 5.0 0.00 0.00 0.00 63 1014.3
20260830191004 71 45 2.0 5.0 0.00 0.00 0.00 63 1014.3
20260830190503 71 45 2.0 4.0 0.00 0.00 0.00 62 1014.3
20260830190003 71 45 2.0 5.0 0.00 0.00 0.00 62 1014.4
20260830185503 71 45 1.0 4.0 0.00 0.00 0.00 62 1014.4
20260830185004 70 45 2.0 5.0 0.00 0.00 0.00 64 1014.5
20260830184524 70 23 1.0 3.0 0.00 0.00 0.00 64 1014.6
20260830184003 70 45 2.0 5.0 0.00 0.00 0.00 63 1014.8
20260830183503 70 45 2.0 5.0 0.00 0.00 0.00 63 1014.8
20260830183004 71 45 2.0 6.0 0.00 0.00 0.00 63 1014.8
20260830182503 71 45 2.0 5.0 0.00 0.00 0.00 62 1014.8
20260830182003 72 45 1.0 4.0 0.00 0.00 0.00 61 1014.8
20260830181503 71 45 1.0 3.0 0.00 0.00 0.00 63 1014.8
20260830181003 70 45 1.0 3.0 0.00 0.00 0.00 63 1014.9
20260830180503 70 45 1.0 4.0 0.00 0.00 0.00 62 1014.8
20260830180024 70 45 1.0 3.0 0.00 0.00 0.00 63 1014.9
20260830175543 70 45 1.0 3.0 0.00 0.00 0.00 64 1014.9
20260830175003 69 45 1.0 3.0 0.00 0.00 0.00 65 1014.9
20260830174504 69 135 1.0 4.0 0.00 0.00 0.00 65 1014.9
20260830174003 69 45 1.0 3.0 0.00 0.00 0.00 66 1014.9
20260830173523 69 45 1.0 4.0 0.00 0.00 0.00 65 1014.9
20260830173003 69 135 1.0 3.0 0.00 0.00 0.00 66 1014.9
20260830172503 68 113 1.0 4.0 0.00 0.00 0.00 67 1014.8
20260830172003 68 45 1.0 3.0 0.00 0.00 0.00 67 1014.9
20260830171503 68 113 1.0 3.0 0.00 0.00 0.00 67 1014.8
20260830171023 68 45 1.0 2.0 0.00 0.00 0.00 67 1014.8
20260830170503 67 45 1.0 3.0 0.00 0.00 0.00 68 1014.8
20260830170003 67 45 1.0 3.0 0.00 0.00 0.00 68 1014.8
20260830165503 67 45 1.0 2.0 0.00 0.00 0.00 68 1014.8
20260830165003 67 45 1.0 2.0 0.00 0.00 0.00 68 1015.0
20260830164503 67 45 1.0 2.0 0.00 0.00 0.00 69 1014.8
20260830164003 67 45 1.0 2.0 0.00 0.00 0.00 70 1014.8
20260830163503 66 338 1.0 2.0 0.00 0.00 0.00 70 1014.9
20260830163003 66 45 1.0 2.0 0.00 0.00 0.00 70 1014.9
20260830162503 66 45 1.0 2.0 0.00 0.00 0.00 70 1014.9
20260830162023 66 45 1.0 3.0 0.00 0.00 0.00 69 1014.9
20260830161503 66 315 1.0 2.0 0.00 0.00 0.00 70 1014.9
20260830161004 65 338 1.0 3.0 0.00 0.00 0.00 70 1014.9
20260830160523 65 45 1.0 2.0 0.00 0.00 0.00 71 1015.1
20260830160023 65 0.0 2.0 0.00 0.00 0.00 72 1015.1
20260830155523 64 45 1.0 2.0 0.00 0.00 0.00 74 1015.1
20260830155023 63 135 1.0 2.0 0.00 0.00 0.00 76 1015.2
20260830154505 63 135 1.0 1.0 0.00 0.00 0.00 77 1015.0
20260830154005 62 135 1.0 2.0 0.00 0.00 0.00 78 1015.1
20260830153505 62 135 1.0 1.0 0.00 0.00 0.00 80 1015.1
20260830153005 61 158 1.0 2.0 0.00 0.00 0.00 80 1015.1
20260830152505 61 248 1.0 3.0 0.00 0.00 0.00 81 1015.2
20260830152005 60 315 1.0 2.0 0.00 0.00 0.00 83 1015.1
20260830151505 59 0.0 2.0 0.00 0.00 0.00 86 1015.1
20260830151005 58 225 1.0 2.0 0.00 0.00 0.00 87 1015.1
20260830150505 58 270 1.0 1.0 0.00 0.00 0.00 87 1015.0
20260830150025 57 338 1.0 2.0 0.00 0.00 0.00 88 1015.1
20260830145505 57 315 1.0 2.0 0.00 0.00 0.00 88 1015.0
20260830145005 56 293 1.0 2.0 0.00 0.00 0.00 88 1014.9
20260830144505 56 315 1.0 3.0 0.00 0.00 0.00 89 1015.0
20260830144004 56 293 1.0 2.0 0.00 0.00 0.00 89 1015.0
20260830143505 55 315 1.0 3.0 0.00 0.00 0.00 89 1014.9
20260830143005 55 338 1.0 2.0 0.00 0.00 0.00 89 1014.9
20260830142505 55 315 1.0 2.0 0.00 0.00 0.00 89 1015.0
20260830142005 55 0.0 2.0 0.00 0.00 0.00 89 1014.9
20260830141523 55 0.0 2.0 0.00 0.00 0.00 89 1014.9
20260830141005 54 0.0 1.0 0.00 0.00 0.00 89 1014.7
20260830140504 54 0.0 1.0 0.00 0.00 0.00 89 1014.8
20260830140005 54 0.0 1.0 0.00 0.00 0.00 89 1014.6
20260830135505 54 0.0 1.0 0.00 0.00 0.00 89 1014.7
20260830135004 54 225 1.0 2.0 0.00 0.00 0.00 89 1014.6
20260830134505 54 0.0 1.0 0.00 0.00 0.00 89 1014.5
20260830134004 53 248 1.0 2.0 0.00 0.00 0.00 89 1014.4
20260830133504 53 0.0 2.0 0.00 0.00 0.00 89 1014.4
20260830133004 53 0.0 1.0 0.00 0.00 0.00 89 1014.5
20260830132505 53 0.0 1.0 0.00 0.00 0.00 89 1014.5
20260830132005 53 0.0 1.0 0.00 0.00 0.00 88 1014.4
20260830131504 52 293 1.0 2.0 0.00 0.00 0.00 88 1014.4
20260830131005 52 0.0 2.0 0.00 0.00 0.00 88 1014.4
20260830130504 52 0.0 1.0 0.00 0.00 0.00 87 1014.4
20260830130005 52 0.0 1.0 0.00 0.00 0.00 87 1014.5
20260830125505 52 0.0 1.0 0.00 0.00 0.00 87 1014.4
20260830125005 52 0.0 1.0 0.00 0.00 0.00 87 1014.3
20260830124505 52 0.0 1.0 0.00 0.00 0.00 87 1014.3
20260830124004 52 0.0 1.0 0.00 0.00 0.00 87 1014.2
20260830123525 52 0.0 1.0 0.00 0.00 0.00 87 1014.3
20260830123005 53 0.0 1.0 0.00 0.00 0.00 87 1014.3
20260830122505 53 0.0 1.0 0.00 0.00 0.00 87 1014.1
20260830122005 53 0.0 1.0 0.00 0.00 0.00 87 1014.1
20260830121504 53 0.0 1.0 0.00 0.00 0.00 86 1014.2
20260830121004 53 0.0 1.0 0.00 0.00 0.00 86 1014.2
20260830120505 53 0.0 1.0 0.00 0.00 0.00 86 1014.1
20260830120004 53 0.0 1.0 0.00 0.00 0.00 86 1014.2
20260830115504 53 0.0 1.0 0.00 0.00 0.00 86 1014.1
20260830115004 53 0.0 1.0 0.00 0.00 0.00 86 1014.1
20260830114505 53 0.0 1.0 0.00 0.00 0.00 86 1014.2
20260830114024 53 0.0 1.0 0.00 0.00 0.00 86 1014.2
20260830113524 53 0.0 1.0 0.00 0.00 0.00 86 1014.2
20260830113004 54 0.0 1.0 0.00 0.00 0.00 85 1014.3
20260830112504 54 0.0 1.0 0.00 0.00 0.00 85 1014.2
20260830112004 54 0.0 1.0 0.00 0.00 0.00 85 1014.1
20260830111525 54 0.0 1.0 0.00 0.00 0.00 85 1014.1
20260830111005 54 0.0 1.0 0.00 0.00 0.00 85 1014.1
20260830110504 54 0.0 1.0 0.00 0.00 0.00 85 1014.1
20260830110005 54 0.0 1.0 0.00 0.00 0.00 85 1014.1
20260830105504 54 0.0 1.0 0.00 0.00 0.00 84 1014.1
20260830105004 54 0.0 1.0 0.00 0.00 0.00 84 1013.9
20260830104504 54 0.0 1.0 0.00 0.00 0.00 84 1013.9
20260830104004 54 0.0 1.0 0.00 0.00 0.00 84 1013.9
20260830103504 55 0.0 1.0 0.00 0.00 0.00 84 1013.9
20260830103004 55 0.0 1.0 0.00 0.00 0.00 83 1013.9
20260830102504 55 0.0 1.0 0.00 0.00 0.00 83 1014.1
20260830102004 55 0.0 1.0 0.00 0.00 0.00 83 1013.9
20260830101524 55 0.0 1.0 0.00 0.00 0.00 83 1013.8
20260830101024 55 0.0 1.0 0.00 0.00 0.00 84 1013.9
20260830100505 55 0.0 1.0 0.00 0.00 0.00 83 1013.9
20260830100004 55 0.0 2.0 0.00 0.00 0.00 83 1014.0
20260830095504 55 0.0 1.0 0.00 0.00 0.00 83 1014.0
20260830095024 55 0.0 1.0 0.00 0.00 0.00 83 1014.0
20260830094504 56 0.0 1.0 0.00 0.00 0.00 83 1014.1
20260830094004 56 0.0 1.0 0.00 0.00 0.00 83 1013.9
20260830093504 56 0.0 1.0 0.00 0.00 0.00 83 1013.9
20260830093004 56 0.0 1.0 0.00 0.00 0.00 83 1014.0
20260830092504 56 0.0 1.0 0.00 0.00 0.00 83 1014.0
20260830092004 56 0.0 1.0 0.00 0.00 0.00 83 1014.1
20260830091524 56 0.0 1.0 0.00 0.00 0.00 82 1014.1
20260830091024 56 0.0 1.0 0.00 0.00 0.00 82 1014.1
20260830090524 56 0.0 1.0 0.00 0.00 0.00 82 1014.1
20260830090005 56 0.0 1.0 0.00 0.00 0.00 82 1014.2
20260830085504 56 0.0 1.0 0.00 0.00 0.00 82 1014.3
20260830085004 56 0.0 1.0 0.00 0.00 0.00 82 1014.2
20260830084504 56 0.0 1.0 0.00 0.00 0.00 82 1014.2
20260830084004 56 315 1.0 1.0 0.00 0.00 0.00 82 1014.2
20260830083504 56 0.0 1.0 0.00 0.00 0.00 82 1014.2
20260830083024 57 0.0 1.0 0.00 0.00 0.00 82 1014.2
20260830082504 57 0.0 1.0 0.00 0.00 0.00 82 1014.4
20260830082004 57 0.0 1.0 0.00 0.00 0.00 82 1014.4
20260830081504 57 0.0 1.0 0.00 0.00 0.00 82 1014.4
20260830081004 57 0.0 2.0 0.00 0.00 0.00 82 1014.3
20260830080504 57 0.0 1.0 0.00 0.00 0.00 82 1014.4
20260830080004 57 0.0 1.0 0.00 0.00 0.00 82 1014.4
20260830075504 57 0.0 1.0 0.00 0.00 0.00 81 1014.3
20260830075024 57 0.0 1.0 0.00 0.00 0.00 81 1014.3
20260830074504 58 0.0 1.0 0.00 0.00 0.00 81 1014.2
20260830074024 58 0.0 1.0 0.00 0.00 0.00 80 1014.3
20260830073524 58 0.0 1.0 0.00 0.00 0.00 80 1014.3
20260830073004 58 0.0 1.0 0.00 0.00 0.00 79 1014.3
20260830072504 58 0.0 1.0 0.00 0.00 0.00 79 1014.4
20260830072024 58 0.0 1.0 0.00 0.00 0.00 78 1014.3
20260830071524 59 0.0 1.0 0.00 0.00 0.00 78 1014.4
20260830071004 59 0.0 1.0 0.00 0.00 0.00 77 1014.3
20260830070504 59 0.0 0.0 0.00 0.00 0.00 77 1014.3
20260830070005 59 0.0 1.0 0.00 0.00 0.00 77 1014.3
20260830065504 59 0.0 1.0 0.00 0.00 0.00 77 1014.2
20260830065003 60 0.0 1.0 0.00 0.00 0.00 77 1014.3
20260830064524 60 0.0 1.0 0.00 0.00 0.00 77 1014.3
20260830064004 60 0.0 1.0 0.00 0.00 0.00 77 1014.2
20260830063604 60 0.0 1.0 0.00 0.00 0.00 77 1014.3
20260830063004 60 0.0 1.0 0.00 0.00 0.00 77 1014.4
20260830062504 60 0.0 1.0 0.00 0.00 0.00 76 1014.4
20260830062024 60 0.0 1.0 0.00 0.00 0.00 76 1014.4
20260830061524 60 0.0 1.0 0.00 0.00 0.00 75 1014.5